Weather Roundup
Issued by NWS

Home | Current Version | Previous Version | Graphics & Text | Print | Product List | Glossary Off
Versions: 1 2 3 4 5 6 7 8 9 10 11 12 13 14 15 16 17 18 19 20 21 22 23 24 25 26 27 28 29 30 31 32 33 34 35 36 37 38 39 40 41 42 43 44 45 46 47 48 49 50

000
NZUS93 KARX 092259
HRRWXR

CURRENT HOURLY OBSERVATIONS ACROSS
MUCH OF THE UPPER MISSISSIPPI VALLEY
NATIONAL WEATHER SERVICE LA CROSSE WI
500 PM CST FRI DEC 09 2016


...SOUTHEAST MINNESOTA...


CITY           SKY/WX    TMP DP  RH WIND       PRES   REMARKS
ROCHESTER      CLOUDY    13   9  84 W7        30.47F WCI   3
ROCHESTER/MAYO CLOUDY    17  12  80 W7        30.48F WCI   8
WINONA         MOCLDY    19  12  73 W3        30.52S
AUSTIN         CLEAR     16   9  73 W7        30.48F WCI   6
ALBERT LEA     PTCLDY    19  12  73 W5        30.48F WCI  13
DODGE CENTER   PTCLDY    16  10  79 W8        30.46F WCI   5
PRESTON        CLEAR     12   8  82 W6        30.47F WCI   3
OWATONNA       FLURRIES  16   9  73 W8        30.48F WCI   5
FARIBAULT      NOT AVBL
$$

...ELSEWHERE IN MINNESOTA...


CITY           SKY/WX    TMP DP  RH WIND       PRES   REMARKS
MINNEAPOLIS    MOCLDY    16   6  65 W8        30.50S WCI   5
INTNL FALLS    MOCLDY     3  -5  69 W5        30.44F WCI  -6
DULUTH         CLOUDY     8   1  73 NW7       30.41F WCI  -3
RED WING       MOCLDY    18   9  68 NW5       30.49F WCI  11
REDWOOD FALLS  CLOUDY    11   2  67 NW6       30.53R WCI   1
MANKATO        FLURRIES  13   8  81 NW8       30.51S WCI   2
WORTHINGTON    LGT SNOW  14   8  77 W6        30.48S WCI   5
FAIRMONT       FLURRIES  16   9  74 W6        30.50F WCI   7
$$

...SOUTHWEST WISCONSIN...


CITY           SKY/WX    TMP DP  RH WIND       PRES   REMARKS
LA CROSSE      MOCLDY    20  10  65 W9        30.51S WCI   9
PRAIRIE DU CHI CLEAR     19  10  69 W6        30.54R WCI  11
BOSCOBEL       CLEAR     21  11  65 W5        30.53R WCI  15
LONE ROCK      NOT AVBL
PLATTEVILLE    CLEAR     18  12  79 W5        30.50S WCI  11
FORT MC COY    CLEAR     20  11  68 W5        30.49S WCI  14
MAUSTON-NEW LI CLEAR     21   9  60 W3        30.46S
VIROQUA        FAIR      15   9  74 W6        30.46S WCI   7
WIS DELLS      CLEAR     20   8  60 CALM      30.46S
$$

...ELSEWHERE IN WISCONSIN...


CITY           SKY/WX    TMP DP  RH WIND       PRES   REMARKS
MILWAUKEE      PTCLDY    24   7  48 W9        30.48R WCI  14
MADISON        MOCLDY    20   9  62 CALM      30.48S
GREEN BAY      PTCLDY    23  10  57 W12       30.44R WCI  12
EAU CLAIRE     MOCLDY    16   9  74 SW6       30.47S WCI   7
BLACK RVR FLS  FAIR      18   8  66 W6        30.48F WCI  10
MEDFORD        CLOUDY    15   9  75 W5        30.40S WCI   8
WAUSAU         MOCLDY    15   9  76 W7        30.41F WCI   5
WIS RAPIDS     CLOUDY    18   9  68 NW5       30.46S WCI  11
MARSHFIELD     CLOUDY    17   9  70 W8        30.42F WCI   7
RICE LAKE      CLOUDY    17   8  69 W7        30.46S WCI   8
$$

...NORTHEAST IOWA...


CITY           SKY/WX    TMP DP  RH WIND       PRES   REMARKS
WATERLOO       MOCLDY    18  11  74 CALM      30.53S
DUBUQUE        CLEAR     15  10  80 W6        30.51S WCI   6
DECORAH        CLOUDY    14  10  85 W5        30.49S WCI   6
MASON CITY     CLOUDY    19   9  65 W8        30.51F WCI   9
CHARLES CITY   CLOUDY    18  12  79 CALM      30.51S
OELWEIN        MOCLDY    14  10  85 NW5       30.52S WCI   6
$$

...ELSEWHERE IN IOWA...


CITY           SKY/WX    TMP DP  RH WIND       PRES   REMARKS
DES MOINES     CLOUDY    22  10  60 CALM      30.53F
IOWA CITY      CLEAR     20  12  71 W5        30.57F WCI  13
FORT DODGE     CLOUDY    19   9  63 W5        30.51F WCI  13
MARSHALLTOWN   CLEAR     18  11  74 W6        30.52F WCI  10
CEDAR RAPIDS   CLEAR     15  12  88 NW6       30.53F WCI   6
$$

...NORTHERN ILLINOIS...


CITY           SKY/WX    TMP DP  RH WIND       PRES   REMARKS
CHICAGO-OHARE  PTCLDY    22  12  65 W8        30.50R WCI  12
CHICAGO-MIDWAY PTCLDY    23  11  60 W9        30.51S WCI  13
MOLINE         PTCLDY    21  12  68 W7        30.56R WCI  12
ROCKFORD       PTCLDY    20  11  68 W5        30.53S WCI  13
PEORIA         CLOUDY    24  12  60 W5        30.56S WCI  18
$$

NOTE: "FAIR" INDICATES FEW OR NO CLOUDS BELOW 12,000 FEET WITH NO
SIGNIFICANT WEATHER AND/OR OBSTRUCTIONS TO VISIBILITY. WIND
SPEEDS ARE IN MILES-PER-HOUR.




USA.gov is the U.S. government's official web portal to all federal, state and local government web resources and services.